BEIDOU 11

Last updated on Oct. 27, 2020, 5:52 a.m. UTC

1 38091U 12008A   20300.57014994  .00000048  00000-0  00000-0 0  9998
2 38091   1.7520  69.8044 0002561 218.2211  11.3174  1.00271037 31822
UTC
Height (km)
Latitude
Longitude
Inclination
Orbital Period
UTC large
Height (km)
Speed (km/s)
/
Latitude / Longitude
Inclination (degrees)
Orbital Period (minutes)
Azimuth
Elevation
Range (km)
Doppler Factor
iOS Compass Heading
iOS Angle

Next 30 passes for location: Hong Kong

Rise time Rise Azimuth (degrees) Set time Set Azimuth (degrees) Duration Max altitude (degrees)

No matching passes for this satellites